This is the latest recevied weather packets stored in our database for station/object KD4KKF. If no packets are shown the sender has not sent any weather packets the latest 10 day(s).
| Time | Temp. | Humidity | Pressure | Rain* | Wind** | Luminosity | Snow |
|---|---|---|---|---|---|---|---|
| 1777232622 | 28.33° C | 54% | 1010.1 hPa | 0 mm | - | 483 W/m² | - |
| 1777232321 | 28.89° C | 53% | 1010.4 hPa | 0 mm | - | 458 W/m² | - |
| 1777232017 | 28.33° C | 54% | 1010.3 hPa | 0 mm | - | 571 W/m² | - |
| 1777231714 | 27.78° C | 54% | 1010.6 hPa | 0 mm | - | 473 W/m² | - |
| 1777231411 | 28.33° C | 54% | 1010.7 hPa | 0 mm | - | 425 W/m² | - |
| 1777231107 | 27.78° C | 55% | 1010.6 hPa | 0 mm | - | 387 W/m² | - |
| 1777230802 | 28.33° C | 55% | 1010.6 hPa | 0 mm | - | 340 W/m² | - |
| 1777230498 | 28.89° C | 52% | 1010.6 hPa | 0 mm | - | 321 W/m² | - |
| 1777230195 | 28.33° C | 51% | 1010.5 hPa | 0 mm | - | 744 W/m² | - |
| 1777229891 | 28.33° C | 52% | 1010.7 hPa | 0 mm | - | 391 W/m² | - |
| 1777229588 | 28.89° C | 52% | 1010.7 hPa | 0 mm | - | 598 W/m² | - |
| 1777229284 | 27.78° C | 55% | 1010.8 hPa | 0 mm | - | 408 W/m² | - |
| 1777228982 | 28.33° C | 57% | 1010.9 hPa | 0 mm | - | 625 W/m² | - |
| 1777228677 | 28.33° C | 54% | 1010.8 hPa | 0 mm | - | 422 W/m² | - |
| 1777228374 | 28.33° C | 55% | 1011 hPa | 0 mm | - | 273 W/m² | - |
| 1777228069 | 27.78° C | 57% | 1011.1 hPa | 0 mm | - | 670 W/m² | - |
| 1777227769 | 28.89° C | 56% | 1011 hPa | 0 mm | - | 775 W/m² | - |
| 1777227465 | 28.33° C | 56% | 1011.1 hPa | 0 mm | - | 471 W/m² | - |
| 1777227161 | 28.33° C | 55% | 1011 hPa | 0 mm | - | 927 W/m² | - |
| 1777226858 | 28.33° C | 53% | 1011.6 hPa | 0 mm | - | 845 W/m² | - |
| 1777226556 | 29.44° C | 55% | 1011.4 hPa | 0 mm | - | 876 W/m² | - |
| 1777226253 | 27.78° C | 58% | 1011.4 hPa | 0 mm | - | 900 W/m² | - |
| 1777225949 | 27.78° C | 56% | 1011.7 hPa | 0 mm | - | 781 W/m² | - |
| 1777225644 | 28.89° C | 58% | 1011.7 hPa | 0 mm | - | 796 W/m² | - |
| 1777225342 | 28.33° C | 60% | 1011.7 hPa | 0 mm | - | 785 W/m² | - |
* Rain latest hour (hover to see other rain measurements)
** Current wind speed in m/s (hover to see current wind gust speed)